Weather Roundup
Issued by NWS Springfield, MO

Home | Current Version | Previous Version | Text Only | Print | Product List | Glossary On
Versions: 1 2 3 4 5 6 7 8 9 10 11 12 13 14 15 16 17 18 19 20 21 22 23 24 25 26 27 28 29 30 31 32 33 34 35 36 37 38 39 40 41 42 43 44 45 46 47 48 49 50
000
NZUS99 KSGF 260159
HRRSGF

HOURLY WEATHER
NATIONAL WEATHER SERVICE SPRINGFIELD MO
800 PM CST SUN JAN 25 2015

......SGF CWA......

CITY           SKY/WX    TMP DP  RH WIND       PRES   REMARKS
SPRINGFIELD    CLOUDY    36  33  89 N20       30.02R WCI  25
JOPLIN         CLOUDY    40  32  73 NW16G22   30.10R WCI  31
WEST PLAINS    CLOUDY    36  32  85 NW15G24   29.92R WCI  27
ROLLA          CLOUDY    32  29  88 N14       29.96R WCI  22
OSAGE BEACH    CLOUDY    34  28  80 NW10G17   30.03R WCI  26
BRANSON        CLOUDY    37  32  81 NW20G29   30.01R WCI  27

......SURROUNDING SGF CWA......

CITY           SKY/WX    TMP DP  RH WIND       PRES   REMARKS
CHANUTE        CLOUDY    41  31  67 N10       30.12S
PARSONS        CLOUDY    42  32  67 N10       30.12R
COFFEYVILLE    CLOUDY    42  31  64 N13       30.12R
EMPORIA        MOCLDY    34  28  79 N8        30.12R WCI  27
SILOAM SPRINGS CLOUDY    41  28  60 N20G25    30.08R
HARRISON AR    CLOUDY    39  33  79 NW20G30   29.99R WCI  29
NEAR YELLVILLE CLOUDY    41  30  65 NW13G31   29.97R

......KANSAS AND MISSOURI......

CITY           SKY/WX    TMP DP  RH WIND       PRES   REMARKS
KANSAS CTY INT CLOUDY    35  30  82 N6        30.08S WCI  30
DOWNTOWN KC    CLOUDY    39  29  67 N7        30.09S WCI  34
COLUMBIA       CLOUDY    32  29  88 N15       30.03R WCI  22
SEDALIA        CLOUDY    34  30  85 N12       30.07R WCI  25
ST JOSEPH      PTCLDY    29  26  89 CALM      30.10S
ST LOUIS       FLURRIES  34  29  82 N13G26    29.94R WCI  25
SPIRIT OF STL  CLOUDY    33  30  88 N15       29.96R WCI  23
KIRKSVILLE     CLOUDY    30  27  88 N9        30.05R WCI  22
WICHITA        PTCLDY    42  29  59 N7        30.14R
TOPEKA         CLOUDY    40  30  67 NW8       30.12R WCI  34
OLATHE         CLOUDY    37  30  75 N10G21    30.08S WCI  30

......TENNESSEE......

CITY           SKY/WX    TMP DP  RH WIND       PRES   REMARKS
MEMPHIS        CLOUDY    45  35  68 NW15G23   29.87R
NASHVILLE      CLOUDY    47  42  83 VRB5      29.71S

......ARKANSAS.......

CITY           SKY/WX    TMP DP  RH WIND       PRES   REMARKS
FAYETTEVILLE   CLOUDY    40  32  73 N15G26    30.05R WCI  32
FT SMITH       CLOUDY    47  30  51 N15G22    30.06R
LITTLE ROCK    CLOUDY    50  31  48 NW21G29   29.97R

......OKLAHOMA.......

CITY           SKY/WX    TMP DP  RH WIND       PRES   REMARKS
TULSA          PTCLDY    45  32  60 N15       30.11R
PONCA CITY     CLEAR     38  28  67 NE6       30.14R WCI  33
MCALESTER      PTCLDY    47  31  53 N9        30.10R
OKLAHOMA CITY  CLEAR     46  26  45 N9        30.13R

......IOWA............

CITY           SKY/WX    TMP DP  RH WIND       PRES   REMARKS
DES MOINES     CLOUDY    33  26  75 N8        30.07S WCI  26
QUAD CITIES    CLEAR     23  15  71 N6        30.03R WCI  16

......ILLINOIS........

CITY           SKY/WX    TMP DP  RH WIND       PRES   REMARKS
QUINCY         CLOUDY    29  24  82 N13       30.01R WCI  19
CHICAGO        PTCLDY    26  16  65 NE10      29.97R WCI  16




USA.gov is the U.S. government's official web portal to all federal, state and local government web resources and services.